Regional Weather Roundup
Issued by NWS Newport/Morehead, NC

Current Version | Previous Version | Text Only | Print | Product List | Glossary Off
Versions: 1 2 3 4 5 6 7 8 9 10 11 12 13 14 15 16 17 18 19 20 21 22 23 24 25 26 27 28 29 30 31 32 33 34 35 36 37 38 39 40 41 42 43 44 45 46 47 48 49 50
728 ASUS42 KMHX 201713 RWRMHX WEATHER ROUNDUP FOR EASTERN NORTH CAROLINA NATIONAL WEATHER SERVICE NEWPORT/MOREHEAD CITY NC 1200 PM EST MON FEB 20 2017 NOTE: "FAIR" INDICATES FEW OR NO CLOUDS BELOW 12,000 FEET WITH NO SIGNIFICANT WEATHER AND/OR OBSTRUCTIONS TO VISIBILITY NCZ015>017-031-032-045>047-102-103-201800- NORTH COAST CITY SKY/WX TMP DP RH WIND PRES REMARKS EDENTON SUNNY 67 39 34 NE12 30.22S ELIZABETH CITY SUNNY 63 40 42 NE13 30.22S KITTY HAWK NOT AVBL MANTEO SUNNY 58 41 53 NE15 30.22S $$ NCZ045>047-081-094-103-104-201800- CENTRAL COAST CITY SKY/WX TMP DP RH WIND PRES REMARKS FRISCO SUNNY 59 45 59 N9G20 30.18F HAZE $$ NCZ095-097-098-100-101-201800- SOUTHERN COAST CITY SKY/WX TMP DP RH WIND PRES REMARKS BEAUFORT SUNNY 68 46 45 NE12G20 30.18F CEDAR ISLAND NOT AVBL JACKSONVILLE NOT AVBL PINEY ISLAND SUNNY N/A N/A N/A NE15 30.19F WILMINGTON SUNNY 72 44 36 NE6 30.18F $$ NCZ011>013-027>030-043-044-078>080-089-090>093-098-201800- COASTAL PLAIN CITY SKY/WX TMP DP RH WIND PRES REMARKS AHOSKIE N/A 65 36 33 N9 30.22F CLINTON SUNNY 69 45 41 NE5 30.21F ELIZABETHTOWN SUNNY 70 43 37 E8 30.19F GOLDSBORO SUNNY 69 36 30 NE9 30.19F GREENVILLE NOT AVBL HAVELOCK SUNNY 68 42 38 E8 30.19F KENANSVILLE NOT AVBL KINSTON SUNNY 70 36 28 E8 30.21F NEW BERN SUNNY 67 40 37 N9 30.21S RICHLANDS SUNNY 68 43 40 NE7 30.20F ROCKY MOUNT SUNNY 68 36 30 NE10 30.22F WASHINGTON SUNNY 67 37 33 E9 30.21F WHITEVILLE SUNNY 69 45 40 NE3 30.19F $$ AMZ130-135-150-152-154-156-158-170-250-252-270-ANZ085-086-088-633-658-670-201800- MARINE OBSERVATIONS STATION/POSITION TIME TEMP WIND PRES WAVE SWELL AIR SEA DIR/SP/G HT/PER HT/PER (UTC) (F) (DEG/KT/KT) (MB) (FT/S) (FT/S) CHESAPEAKE LIGHT NOT AVBL 64 E VA BEACH 1650 51 51 360/ 10/ 12 1022.2 3/ 5 2/ 5 DUCK 1642 50 49 20/ 12/ 13 1022.7 2 E DUCK 1700 49 N/A 2/ 3 OREGON INLET 1642 54 50 360/ 12/ 15 1022.5 13E OREGON INLT NOT AVBL HATTERAS CG 1642 54 56 10/ 18/ 20 1021.6 DIAMOND BUOY 1650 57 63 10/ 17/ 21 1021.6 3/ 6 2/ 9 CAPE LOOKOUT 1700 58 40/ 14/ 16 1022.0 BEAUFORT LAB 1642 64 53 30/ 8/ 13 1021.3 30 SE NEW RVR IN 1608 60 50/ 16/ 19 1022.0 30 SE NEW RVR IN 1643 63 N/A 3/ 4 27 SE WRIGHTSVLE 1608 61 61 60/ 12/ 17 1022.1 5 SE WRIGHTSVLE 1608 58 56 40/ 4/ 8 1022.4 225 S CAPE HAT 1650 70 71 20/ 16/ 17 1019.6 6/ 6 2/11 41 SE CHARLESTON 1650 65 69 40/ 10/ 12 1021.5 2/ 4 $$

USA.gov is the U.S. government's official web portal to all federal, state and local government web resources and services.